ATLAS 5 CENTAUR DEB, 43980

Orbit data source: Space-Track

ATLAS 5 CENTAUR DEB, 43980 is space debris in HEO originally from a launch on Wed, 17 Sep 2014 UTC launched from the Air Force Eastern Test Range (AFETR). Debris objects in space refer to the collection of defunct objects orbiting the Earth. Examples of debris include non-operational satellites, rocket bodies, and fragments generated from explosions, collisions, or faulty payload assembly.

Loading next visibility...
Identifier
43980, 2014-055AK
Orbit
HEO
Last TLE update
6 days ago
Origin
Manufacturer
Unknown
Mission
Spacecraft
Bus & Motor
Unknown
Mass
Unknown
Launch date (UTC)
2014-09-17 (11 years ago)
Launch vehicle
Unknown
Launch site
Air Force Eastern Test Range (AFETR)
Object type
Payload
Rocket body
Debris
Shape & HBR
Unknown
Radar Cross Section
Medium (>0.1 m² and <1 m²)

Expand to show TLE details & history

TLE from 6 days ago
0 ATLAS 5 CENTAUR DEB
1 43980U 14055AK  25123.67758380 -.00000029  00000-0  00000-0 0  9998
2 43980  19.4788 187.1568 4861019  85.9612 326.0258  1.83780279 44659
Epoch: 2025-05-03T16:15Z
Definitive object data (Epoch: 2025-05-03T16:15:43.24Z)
Latitude
-0.00006°
Longitude
81.49836°
Altitude
14,383.349 km
Speed
4.923 km/s
True Right ascension
12h 28m 58s
True Declination
0° 00' 00"
Sunlit
Object was in daylight at TLE epoch
Visualization TLE readout
Latitude
-11.11655°
Longitude
-65.35834°
Altitude
24,466.302 km
Speed
3.419 km/s
Apparent Right ascension
02h 43m 24s
Apparent Declination
-15° 53' 31"
Sunlit
Object is in daylight
Visualization observer readout
Local Sidereal Time
14:54:50
Azimuth
6.738° NNE
Elevation
-65.847°
Doppler factor
1
Orbital elements
Apogee altitude
35,464.099 km
Perigee altitude
8,091.023 km
Semi-major axis
28,155.698 km
Eccentricity
0.4861019
Inclination
19.4788°
RAAN
187.1568°
Arg. of periapsis
85.9612°
True anomaly
274.03128°
Mean anomaly
326.0258°
Eccentric anomaly
302.54875°
Mean motion
0.4594 °/min
BSTAR
Unknown
Orbital period
783.63 mins
Loading maneuver chart data...
Loading SW <> Apogee altitude chart data...
Loading historical data...
Loading historical data...
Loading historical data...
Loading historical data...
Loading historical data...
Loading historical data...
Loading historical data...

ATLAS 5 CENTAUR DEB Visibility forecast

Observer location: undefined°, undefined°

Span
Click to sort rows by Start time (UTC) header in descending order
Start Az.
Max El. time (UTC)
Max El. Az.
Max El.
End time (UTC)
End Az.
742 mins2025-05-09 17:50:57.650Z257.26° W2025-05-10 05:30:57.650Z160.303° S34.039°2025-05-10 06:12:57.650Z94.181° ESE
|